Location: ??????????
(54.7560°N, 39.1389°E)
Time: 07:24:10
(UTC+00:00)

Cosmos 1300 - Pass Details

Date: 19 May 2025
Orbit: 394 x 397 km, 82.5° (Epoch: 15 June)

Event Time Altitude Azimuth Distance (km) Brightness Sun altitude
Rises 20:42:03 0° 353° (N) 2,324 8.0 -14.8°
Reaches altitude 10° 20:44:09 10° 2° (N) 1,458 6.3 -14.9°
Maximum altitude 20:47:09 38° 73° (ENE) 632 3.2 -15.0°
Enters shadow 20:48:30 24° 124° (SE) 870 3.5 -15.0°
